Weather History for Minneapolis, MN

Change the Weather History Date:

Sunday, November 25, 2012

  Actual Average Record
Temperature  
Mean Temperature 27 °F 28 °F  
Max Temperature 30 °F 36 °F 62 °F (1914)
Min Temperature 23 °F 21 °F -18 °F (1880)
Degree Days  
Heating Degree Days 38 37  
Month to date heating degree days 645 748  
Since 1 July heating degree days 1305 1428  
Cooling Degree Days 0 0  
Month to date cooling degree days 0 0  
Year to date cooling degree days 1131 753  
Moisture  
Dew Point 19 °F    
Average Humidity 67    
Maximum Humidity 75    
Minimum Humidity 58    
Precipitation  
Precipitation 0.00 in 0.05 in 0.97 in (1896)
Month to date precipitation 0.63 1.50  
Year to date precipitation 27.95 29.18  
Snow  
Snow 0.00 in 0.50 in 5.30 in (1952)
Month to date snowfall 0.8 7.2  
Since 1 July snowfall 0.8 7.8  
Since 1 September snowfall 0.8 7.8  
Snow Depth T in    
Sea Level Pressure  
Sea Level Pressure 30.01 in    
Wind  
Wind Speed 10 mph (WNW)    
Max Wind Speed 22 mph    
Max Gust Speed 30 mph    
Visibility 10 miles    
Events      
T = Trace of Precipitation, MM = Missing Value Source: NWS Daily Summary

Daily Weather History Graph

Daily Weather History Graph

Search for Another Location

Airport:

Trip Planner

Search our weather history database for the weather conditions in past years. The results will help you decide how hot, cold, wet, or windy it might be!

Date:

Astronomy

Nov. 25, 2012 Rise Set
Actual Time 7:23 AM CST 4:35 PM CST
Civil Twilight 6:51 AM CST 5:08 PM CST
Nautical Twilight 6:15 AM CST 5:44 PM CST
Astronomical Twilight 5:40 AM CST 6:19 PM CST
Moon 2:57 PM CST (11/25) 4:33 AM CST (11/25)
Length of Visible Light 10h 17m
Length of Day
9h 11m
Waxing Gibbous, 93% of the Moon is Illuminated
Nov 25
Waxing Gibbous
Nov 28
Full
Dec 6
Last Quarter
Dec 13
New
Dec 19
First Quarter

Hourly Weather History & Observations

Time (CST) Temp. Windchill Dew Point Humidity Pressure Visibility Wind Dir Wind Speed Gust Speed Precip Events Conditions
12:53 AM 28.9 °F 25.2 °F 18.0 °F 64% 29.84 in 10.0 mi West 3.5 mph - N/A   Overcast
1:25 AM 30.2 °F 26.7 °F 17.6 °F 60% 29.80 in 10.0 mi WSW 3.5 mph - N/A   Overcast
1:53 AM 30.0 °F 24.1 °F 18.0 °F 61% 29.85 in 10.0 mi West 5.8 mph - N/A   Overcast
2:53 AM 30.0 °F 20.0 °F 19.0 °F 64% 29.86 in 10.0 mi NNW 12.7 mph - N/A   Overcast
3:53 AM 30.0 °F 20.5 °F 21.9 °F 72% 29.88 in 10.0 mi NW 11.5 mph 18.4 mph N/A   Overcast
4:53 AM 30.0 °F 20.0 °F 21.0 °F 69% 29.91 in 10.0 mi NNW 12.7 mph - N/A   Overcast
5:53 AM 28.9 °F 19.2 °F 21.9 °F 75% 29.93 in 9.0 mi NW 11.5 mph - N/A   Overcast
6:53 AM 28.0 °F 17.0 °F 21.0 °F 75% 29.94 in 10.0 mi NW 13.8 mph - N/A   Overcast
7:53 AM 28.0 °F 19.3 °F 21.0 °F 75% 29.96 in 10.0 mi NW 9.2 mph - N/A   Overcast
8:53 AM 28.9 °F 21.1 °F 21.9 °F 75% 29.98 in 10.0 mi WNW 8.1 mph - N/A   Overcast
9:53 AM 28.9 °F 19.8 °F 21.0 °F 72% 29.99 in 10.0 mi West 10.4 mph - N/A   Overcast
10:53 AM 28.9 °F 18.6 °F 21.0 °F 72% 30.01 in 10.0 mi WNW 12.7 mph - N/A   Overcast
11:53 AM 28.0 °F 19.3 °F 19.9 °F 72% 30.02 in 10.0 mi WNW 9.2 mph - N/A   Overcast
12:53 PM 28.9 °F 19.8 °F 21.0 °F 72% 30.01 in 10.0 mi West 10.4 mph - N/A   Overcast
1:53 PM 28.9 °F 20.4 °F 19.9 °F 69% 30.01 in 10.0 mi NW 9.2 mph 19.6 mph N/A   Overcast
2:53 PM 30.0 °F 20.5 °F 19.9 °F 66% 30.02 in 10.0 mi WNW 11.5 mph - N/A   Mostly Cloudy
3:53 PM 28.9 °F 21.1 °F 19.9 °F 69% 30.04 in 9.0 mi WNW 8.1 mph - N/A   Overcast
4:22 PM 28.4 °F 20.4 °F 19.4 °F 69% 30.01 in 10.0 mi WNW 8.1 mph - N/A   Scattered Clouds
4:53 PM 28.0 °F 20.8 °F 19.9 °F 72% 30.06 in 10.0 mi West 6.9 mph - N/A   Mostly Cloudy
5:53 PM 28.9 °F 22.8 °F 19.9 °F 69% 30.06 in 10.0 mi SW 5.8 mph - N/A   Overcast
6:53 PM 28.9 °F 23.9 °F 21.0 °F 72% 30.06 in 10.0 mi WSW 4.6 mph - N/A   Overcast
7:53 PM 28.9 °F 21.1 °F 21.0 °F 72% 30.08 in 10.0 mi West 8.1 mph - N/A   Overcast
8:39 PM 30.2 °F 22.6 °F 21.2 °F 69% 30.05 in 10.0 mi WSW 8.1 mph - N/A   Overcast
8:53 PM 30.0 °F 19.5 °F 21.9 °F 72% 30.09 in 10.0 mi WNW 13.8 mph 19.6 mph N/A   Overcast
9:24 PM 28.4 °F 16.2 °F 15.8 °F 59% 30.08 in 10.0 mi NW 17.3 mph 25.3 mph N/A   Overcast
9:53 PM 27.0 °F 16.7 °F 16.0 °F 63% 30.13 in 10.0 mi NW 11.5 mph 20.7 mph N/A   Overcast
10:53 PM 26.1 °F 15.0 °F 15.1 °F 63% 30.16 in 10.0 mi NW 12.7 mph 24.2 mph N/A   Overcast
11:53 PM 24.1 °F 10.6 °F 8.1 °F 51% 30.19 in 10.0 mi NW 17.3 mph 26.5 mph N/A   Overcast